Rochester, NH

6:09 PM EDT on May 22, 2018 (GMT -0400)
Skyhaven

Weather History for KDAW - January, 2014

Change the Weather History Date:

Wednesday, January 8, 2014

  Actual Average (KPSM) Record (KPSM)
Temperature  
Mean Temperature 10 °F -  
Max Temperature 19 °F 32 °F 59 °F (2008)
Min Temperature 1 °F 17 °F -6 °F (2015)
Degree Days  
Heating Degree Days 55    
Moisture  
Dew Point -4 °F    
Average Humidity 51    
Maximum Humidity 66    
Minimum Humidity 38    
Precipitation  
Precipitation 0.00 in - - ()
Sea Level Pressure  
Sea Level Pressure 30.31 in    
Wind  
Wind Speed 3 mph (WSW)    
Max Wind Speed 12 mph    
Max Gust Speed 17 mph    
Visibility 10 miles    
Events      
Averages and records for this station are not official NWS values.
T = Trace of Precipitation, MM = Missing Value Source: NWS Daily Summary

Daily Weather History Graph

Daily Weather History Graph

Search for Another Location

Airport or City:

Astronomy

Jan. 08, 2014 Rise Set
Actual Time 7:15 AM EST 4:25 PM EST
Civil Twilight 6:43 AM EST 4:57 PM EST
Nautical Twilight 6:07 AM EST 5:33 PM EST
Astronomical Twilight 5:33 AM EST 6:07 PM EST
Moon 11:21 AM EST (1/8) 12:11 AM EST (1/8)
Length of Visible Light 10h 14m
Length of Day
9h 10m
First Quarter, 56% of the Moon is Illuminated
Jan 8
First Quarter
Jan 15
Full
Jan 24
Last Quarter
Jan 30
New
Feb 6
First Quarter

Hourly Weather History & Observations

Time (EST) Temp. Windchill Dew Point Humidity Pressure Visibility Wind Dir Wind Speed Gust Speed Precip Events Conditions
12:51 AM 3.9 °F -3.4 °F -11.9 °F 48% 30.13 in 10.0 mi Variable 3.5 mph - N/A   Clear
1:51 AM 5.0 °F - -11.0 °F 48% 30.16 in 10.0 mi Calm Calm - N/A   Clear
2:51 AM 3.9 °F - -9.9 °F 53% 30.19 in 10.0 mi Calm Calm - N/A   Clear
3:51 AM 5.0 °F -2.1 °F -9.0 °F 52% 30.22 in 10.0 mi SW 3.5 mph - N/A   Clear
4:51 AM 3.9 °F - -8.0 °F 58% 30.24 in 10.0 mi Calm Calm - N/A   Clear
5:51 AM 5.0 °F -2.1 °F -8.0 °F 55% 30.26 in 10.0 mi Variable 3.5 mph - N/A   Clear
6:51 AM 1.9 °F - -7.1 °F 66% 30.29 in 10.0 mi Calm Calm - N/A   Clear
7:51 AM 3.9 °F -3.4 °F -7.1 °F 60% 30.32 in 10.0 mi South 3.5 mph - N/A   Clear
8:51 AM 7.0 °F 0.1 °F -5.1 °F 58% 30.35 in 10.0 mi Variable 3.5 mph - N/A   Clear
9:51 AM 12.0 °F 2.7 °F -4.0 °F 49% 30.37 in 10.0 mi Variable 5.8 mph - N/A   Clear
10:51 AM 15.1 °F 4.2 °F -2.9 °F 45% 30.35 in 10.0 mi West 8.1 mph 17.3 mph N/A   Clear
11:51 AM 18.0 °F 11.1 °F -2.0 °F 41% 30.32 in 10.0 mi Variable 4.6 mph - N/A   Clear
12:51 PM 19.0 °F 6.8 °F -2.0 °F 40% 30.31 in 10.0 mi West 11.5 mph - N/A   Clear
1:51 PM 19.0 °F 9.0 °F -2.0 °F 40% 30.32 in 10.0 mi West 8.1 mph - N/A   Clear
2:51 PM 19.0 °F 9.0 °F -2.9 °F 38% 30.32 in 10.0 mi West 8.1 mph 17.3 mph N/A   Clear
3:51 PM 19.0 °F 13.9 °F -2.0 °F 40% 30.33 in 10.0 mi Variable 3.5 mph - N/A   Clear
4:51 PM 18.0 °F 12.7 °F -0.9 °F 44% 30.35 in 10.0 mi Variable 3.5 mph - N/A   Clear
5:51 PM 15.1 °F - -0.9 °F 49% 30.37 in 10.0 mi Calm Calm - N/A   Clear
6:51 PM 15.1 °F - -0.9 °F 49% 30.38 in 10.0 mi Calm Calm - N/A   Clear
7:51 PM 15.1 °F 9.4 °F -0.9 °F 49% 30.39 in 10.0 mi West 3.5 mph - N/A   Clear
8:51 PM 12.0 °F - -0.0 °F 59% 30.40 in 10.0 mi Calm Calm - N/A   Clear
9:51 PM 10.9 °F - -0.0 °F 61% 30.39 in 10.0 mi Calm Calm - N/A   Clear
10:51 PM 12.0 °F - -0.0 °F 59% 30.38 in 10.0 mi Calm Calm - N/A   Partly Cloudy
11:51 PM 12.9 °F 6.9 °F 1.0 °F 59% 30.38 in 10.0 mi West 3.5 mph - N/A   Overcast